STARLINK-11266, 60732

Orbit data source: Space-Track

STARLINK-11266, 60732 is a payload satellite owned by SpaceX/Seattle (US) in LEO that was launched on Wed, 28 Aug 2024 UTC via an FALCON 9 launch vehicle from the Air Force Eastern Test Range (AFETR). Payload-class satellites include a variety of spacecraft equipped with specific instruments for various scientific and technological missions. These include communications satellites like Starlink; space stations such as the ISS; scientific satellites like the Hubble; Earth observation satellites from companies like Planet Labs, Umbra, and HawkEye 360; GPS; miniature CubeSats for education and research; and military/defense satellites.

Loading next visibility...
Identifier
60732, 2024-152N
Orbit
LEO
Last TLE update
20 hours ago
Origin
Manufacturer
SpaceX/Seattle
Mission
Operational Commercial Communications
Bus & Motor
STARLINK V2M, Unknown motor
Mass
730 kg wet, ~700 kg dry
Launch date (UTC)
2024-08-28 (8 months ago)
Launch vehicle
FALCON 9
Launch site
Air Force Eastern Test Range (AFETR)
Object type
Payload
Rocket body
Debris
Shape & HBR
Box + 2 Pan, 29 m
Radar Cross Section
36.964 m², Large (>1 m²)

Expand to show TLE details & history

TLE from 20 hours ago
0 STARLINK-11266
1 60732U 24152N   25128.41839146  .00002007  00000-0  21427-4 0  9995
2 60732  53.1592 180.7637 0001128  88.6716 271.4431 15.69699551 40906
Epoch: 2025-05-08T10:02Z
Definitive object data (Epoch: 2025-05-08T10:02:29.022Z)
Latitude
-0.00001°
Longitude
163.65359°
Altitude
360.653 km
Speed
7.694 km/s
True Right ascension
12h 03m 03s
True Declination
0° 00' 00"
Sunlit
Object was in full shadow at TLE epoch
Visualization TLE readout
Latitude
16.17046°
Longitude
172.03023°
Altitude
359.738 km
Speed
7.696 km/s
Apparent Right ascension
09h 39m 40s
Apparent Declination
-38° 52' 03"
Sunlit
Object is in full shadow
Visualization observer readout
Local Sidereal Time
14:08:17
Azimuth
226.737° WSW
Elevation
-9.834°
Doppler factor
1
Orbital elements
Apogee altitude
360.778 km
Perigee altitude
359.257 km
Semi-major axis
6,738.154 km
Eccentricity
0.0001128
Inclination
53.1592°
RAAN
180.7637°
Arg. of periapsis
88.6716°
True anomaly
271.43018°
Mean anomaly
271.4431°
Eccentric anomaly
271.43664°
Mean motion
3.92402 °/min
BSTAR
0.000021427
Orbital period
91.74 mins
Loading maneuver chart data...
Loading SW <> Apogee altitude chart data...
Loading historical data...
Loading historical data...
Loading historical data...
Loading historical data...
Loading historical data...
Loading historical data...
Loading historical data...

STARLINK-11266 Visibility forecast

Observer location: undefined°, undefined°

Span
Click to sort rows by Start time (UTC) header in descending order
Start Az.
Max El. time (UTC)
Max El. Az.
Max El.
End time (UTC)
End Az.
5 mins2025-05-09 06:05:31.838Z224.375° SW2025-05-09 06:07:31.838Z190.69° SSW43.666°2025-05-09 06:10:31.838Z52.313° ENE
4 mins2025-05-09 12:30:31.838Z326.982° NNW2025-05-09 12:32:31.838Z43.434° NE36.113°2025-05-09 12:34:31.838Z107.453° ESE
|